STARLINK-1236 (45191 NORAD) Tracking and Keplerian Element Data

This shows tracking and keplerian element data for the satellite.

Feedback or suggestion? Click here.




ElementValue
Catalog45191
NameSTARLINK-1236
Epoch Orbit175
Epoch Day188.91667824
Epoch Year2020
RAAN347.1673
Inclination52.9995
Eccentricity0.000148
Argument of Perigee106.7341
Mean Anonmoly58.5349
Mean Motion15.05549974
Decay Rate0.00038056
L11 45191U 20012P 20188.91667824 .00038056 00000-0 26191-2 0 9990
L22 45191 52.9995 347.1673 0001480 106.7341 58.5349 15.05549974 1753

Live tracking and technical data element details for STARLINK-1236 (NORAD 45191). STARLINK-1236 can be tracked NOW for your location showing map with azimuth and elevation plus other details from your city location.

Track the satellite on the map from your city or location and see movement details for azimuth, elevation, latitude, longitude, range, height, and movement on the map or in text.







IsCatalogInMostPopularTable: catalog: 45191, numindb: 27
Update: records affected: 1



GetName: 45191 STARLINK-1236

Hit Count: updated at: Wed, 08 Jul 2020 05:23:16 GMT